Stations météo

réclame
Mon MeteoGroup
Kloevsjoehoejden, Suède (2325): Température de l'air & dewpoint: 08.08.2018 19:00:00 - 14.08.2018 19:00:00 (CEST)Kloevsjoehoejden, Suède (2325): Vitesse du vent & gusts: 08.08.2018 19:00:00 - 14.08.2018 19:00:00 (CEST)Kloevsjoehoejden, Suède (2325): Direction du vent: 08.08.2018 19:00:00 - 14.08.2018 19:00:00 (CEST)Kloevsjoehoejden, Suède (2325): reduced air pressure: 08.08.2018 19:00:00 - 14.08.2018 19:00:00 (CEST)Kloevsjoehoejden, Suède (2325): visibility: 08.08.2018 19:00:00 - 14.08.2018 19:00:00 (CEST)Kloevsjoehoejden, Suède (2325): Quantités de précipitations: 08.08.2018 19:00:00 - 14.08.2018 19:00:00 (CEST)
Date & Time tt [°C] td [°C] ff [km/h] ff [knt] fx [km/h] fx [knt] dd ppp [hPa] vv [km] rr [mm]
14.08.2018 19:00:00 - - - - - - - - - -
14.08.2018 18:00:00 15,0 5,2 10 5 23 12 S 1006,9 50 0,0
14.08.2018 17:00:00 15,1 4,5 11 6 23 12 S 1007,0 50 0,0
14.08.2018 16:00:00 15,1 5,9 11 6 26 14 SSW 1007,2 50 0,0
14.08.2018 15:00:00 16,1 5,1 5 3 19 10 SSW 1007,0 46 0,0
14.08.2018 14:00:00 14,3 5,6 10 6 23 12 WSW 1007,7 50 0,0
14.08.2018 13:00:00 13,7 5,8 11 6 22 12 S 1008,2 46 0,0
14.08.2018 12:00:00 12,4 5,8 9 5 22 12 S 1008,7 47 0,0
14.08.2018 11:00:00 11,8 5,0 11 6 24 13 S 1009,1 50 0,0
14.08.2018 10:00:00 10,3 5,3 9 5 17 9 SSE 1010,0 46 0,0
14.08.2018 09:00:00 8,2 4,0 9 5 15 8 SE 1010,9 49 0,0
14.08.2018 08:00:00 7,4 4,0 9 5 13 7 SSE 1011,2 45 0,0
14.08.2018 07:00:00 6,8 4,5 6 3 10 5 SE 1011,5 50 0,0
14.08.2018 06:00:00 5,7 4,5 5 3 8 4 E 1011,9 50 0,0
14.08.2018 05:00:00 4,8 3,9 3 2 5 3 E 1012,3 50 0,0
14.08.2018 04:00:00 4,5 3,8 4 2 5 3 S 1012,6 50 0,0
14.08.2018 03:00:00 5,0 4,0 4 2 6 3 NNW 1012,6 50 0,0
14.08.2018 02:00:00 5,0 3,7 5 3 8 4 NNW 1012,4 50 0,0
14.08.2018 01:00:00 5,1 3,4 6 4 9 5 NNW 1012,2 50 0,0
14.08.2018 00:00:00 5,5 3,3 5 3 9 5 NW 1012,1 50 0,0
13.08.2018 23:00:00 6,8 4,5 5 3 9 5 N 1011,5 50 0,0
13.08.2018 22:00:00 7,3 4,3 5 3 13 7 N 1011,3 50 0,0
13.08.2018 21:00:00 8,8 4,2 8 4 20 11 N 1010,6 50 0,0
13.08.2018 20:00:00 9,8 3,5 12 6 24 13 NNW 1009,9 50 0,0
13.08.2018 19:00:00 10,9 3,4 14 8 24 13 NNW 1009,3 50 0,0
13.08.2018 18:00:00 11,6 3,1 15 8 29 16 N 1009,0 50 0,0
13.08.2018 17:00:00 11,9 3,9 14 7 32 17 N 1008,8 50 0,0
13.08.2018 16:00:00 11,4 3,2 16 9 36 20 NNW 1009,0 47 0,0
13.08.2018 15:00:00 12,7 3,9 20 11 40 22 NNW 1008,3 45 0,0
13.08.2018 14:00:00 12,0 3,2 22 12 39 21 NNW 1008,4 41 0,0
13.08.2018 13:00:00 12,1 2,8 20 11 42 23 NW 1008,1 48 0,0
13.08.2018 12:00:00 11,3 3,6 23 12 39 21 NW 1008,1 49 0,0
13.08.2018 11:00:00 10,9 4,1 20 11 44 24 NNW 1008,0 46 0,0
13.08.2018 10:00:00 10,5 4,6 17 9 37 20 NW 1007,9 50 0,0
13.08.2018 09:00:00 9,8 4,8 19 10 41 22 NW 1007,7 50 0,0
13.08.2018 08:00:00 8,7 4,9 20 11 37 20 WNW 1007,8 48 0,0
13.08.2018 07:00:00 6,8 4,5 19 10 42 23 WNW 1008,3 50 0,0
13.08.2018 06:00:00 6,2 4,0 22 12 46 25 WNW 1008,2 50 0,0
13.08.2018 05:00:00 6,1 3,9 22 12 41 22 WNW 1008,3 50 0,0
13.08.2018 04:00:00 5,9 4,2 20 11 31 17 W 1008,6 50 0,0
13.08.2018 03:00:00 5,8 4,0 18 10 32 18 NW 1008,8 50 0,0
13.08.2018 02:00:00 6,0 3,7 19 10 36 19 NW 1008,8 50 0,0
13.08.2018 01:00:00 6,0 3,5 17 9 31 17 WNW 1008,8 50 0,0
13.08.2018 00:00:00 5,6 3,6 16 8 32 17 WNW 1009,2 50 0,0
12.08.2018 23:00:00 6,0 3,2 19 11 36 19 WNW 1008,9 50 0,0
12.08.2018 22:00:00 6,7 3,7 15 8 29 15 NW 1008,9 50 0,0
12.08.2018 21:00:00 7,8 4,2 20 11 40 22 NW 1008,5 50 0,0
12.08.2018 20:00:00 9,1 3,9 16 9 33 18 NW 1008,0 50 0,0
12.08.2018 19:00:00 9,7 3,7 20 11 39 21 NW 1007,6 50 0,0
12.08.2018 18:00:00 10,6 3,4 17 9 41 22 NW 1007,2 50 0,0
12.08.2018 17:00:00 10,4 3,2 17 9 37 20 NNW 1007,4 50 0,0
12.08.2018 16:00:00 11,5 3,3 17 9 35 19 NNW 1007,0 47 0,0
12.08.2018 15:00:00 10,2 3,2 20 11 35 19 NNW 1007,6 50 0,0
12.08.2018 14:00:00 10,3 3,8 15 8 31 17 NNW 1007,8 50 0,0
12.08.2018 13:00:00 9,9 4,1 16 8 32 17 N 1008,1 45 0,0
12.08.2018 12:00:00 9,7 3,9 18 10 34 18 N 1008,1 49 0,0
12.08.2018 11:00:00 8,8 3,8 14 8 29 16 N 1008,4 49 0,0
12.08.2018 10:00:00 7,8 4,4 14 7 35 19 N 1008,9 50 0,0
12.08.2018 09:00:00 7,4 4,4 17 9 34 18 N 1008,9 50 0,0
12.08.2018 08:00:00 6,3 4,1 13 7 30 16 N 1009,6 50 0,0
12.08.2018 07:00:00 5,7 3,5 13 7 24 13 N 1009,8 50 0,0
12.08.2018 06:00:00 5,8 3,1 16 8 29 16 N 1010,0 50 0,0
12.08.2018 05:00:00 5,8 3,3 15 8 27 15 N 1010,3 50 0,0
12.08.2018 04:00:00 6,2 3,7 14 7 25 13 N 1010,6 50 0,0
12.08.2018 03:00:00 6,4 3,9 12 7 20 11 N 1011,1 50 0,0
12.08.2018 02:00:00 6,8 4,3 10 6 23 12 N 1011,5 50 0,0
12.08.2018 01:00:00 7,3 5,1 10 5 18 10 N 1011,7 50 0,0
12.08.2018 00:00:00 7,7 5,3 10 6 25 14 N 1011,8 50 0,1
11.08.2018 23:00:00 8,4 5,5 9 5 18 10 N 1012,0 50 0,0
11.08.2018 22:00:00 9,0 5,4 10 5 16 9 NNE 1012,2 50 0,0
11.08.2018 21:00:00 9,6 5,6 9 5 18 10 NNE 1011,8 50 0,0
11.08.2018 20:00:00 11,1 3,6 9 5 18 10 NNW 1011,1 50 0,0
11.08.2018 19:00:00 11,7 4,0 9 5 18 10 N 1011,0 50 0,0
11.08.2018 18:00:00 12,3 3,3 11 6 23 13 N 1011,0 50 0,0
11.08.2018 17:00:00 13,3 3,6 14 7 29 16 NNW 1010,8 50 0,0
11.08.2018 16:00:00 13,6 3,1 16 8 34 18 WNW 1010,9 48 0,0
11.08.2018 15:00:00 13,1 2,6 24 13 45 25 WNW 1011,1 44 0,0
11.08.2018 14:00:00 14,1 4,7 23 12 38 20 W 1010,8 43 0,0
11.08.2018 13:00:00 12,7 3,9 26 14 46 25 W 1010,6 50 0,0
11.08.2018 12:00:00 12,4 4,9 25 14 49 27 W 1010,2 41 0,0
11.08.2018 11:00:00 11,0 4,0 24 13 54 29 W 1010,4 49 0,0
11.08.2018 10:00:00 10,4 5,0 29 16 63 34 W 1009,1 47 0,0
11.08.2018 09:00:00 9,4 5,2 40 21 63 34 W 1007,9 48 0,0
11.08.2018 08:00:00 7,9 4,3 41 22 68 37 W 1007,4 50 0,0
11.08.2018 07:00:00 7,6 5,4 43 23 75 41 W 1006,2 50 0,0
11.08.2018 06:00:00 7,6 5,9 49 27 85 46 W 1004,5 50 0,0
11.08.2018 05:00:00 8,3 7,5 46 25 71 39 W 1002,7 50 0,3
11.08.2018 04:00:00 8,4 8,3 36 19 66 36 W 1001,7 9 1,8
11.08.2018 03:00:00 7,8 7,7 29 15 52 28 WSW 999,9 8 0,8
11.08.2018 02:00:00 7,6 7,0 22 12 50 27 S 999,5 10 0,2
11.08.2018 01:00:00 8,7 6,0 22 12 58 31 SSW 999,6 30 0,0
11.08.2018 00:00:00 9,4 5,0 29 16 73 40 SSW 999,6 50 0,0
10.08.2018 23:00:00 10,3 5,5 26 14 56 30 S 999,5 50 0,0
10.08.2018 22:00:00 11,2 6,7 29 16 55 30 S 999,4 46 2,0
10.08.2018 21:00:00 12,4 7,1 27 15 66 35 S 999,3 50 0,0
10.08.2018 20:00:00 13,2 8,3 26 14 58 31 S 999,5 50 0,0
10.08.2018 19:00:00 13,9 9,5 31 17 64 35 S 999,2 50 0,0
10.08.2018 18:00:00 15,0 10,4 32 17 68 37 SSW 999,1 50 0,0
10.08.2018 17:00:00 16,1 16,1 17 9 31 17 SSE 999,1 29 0,0
10.08.2018 16:00:00 15,1 15,1 17 9 36 19 SSE 1000,4 9 0,0
10.08.2018 15:00:00 13,9 13,9 17 9 31 17 SSE 1001,5 0,1 0,0
10.08.2018 14:00:00 12,5 12,5 14 8 24 13 SSE 1002,8 0,1 0,0
10.08.2018 13:00:00 11,7 11,7 10 5 17 9 SE 1003,7 0,1 0,0
10.08.2018 12:00:00 11,2 11,2 10 5 22 12 E 1004,7 0,1 0,0
10.08.2018 11:00:00 10,7 10,7 8 5 23 12 ENE 1006,0 0,2 3,6
10.08.2018 10:00:00 10,2 10,2 10 5 20 11 NNE 1007,9 0,1 2,6
10.08.2018 09:00:00 9,7 9,7 14 8 21 12 NNE 1009,2 0,1 0,2
10.08.2018 08:00:00 9,8 9,8 13 7 19 11 N 1009,7 6 0,4
10.08.2018 07:00:00 10,0 9,7 9 5 18 10 NNW 1011,0 18 0,3
10.08.2018 06:00:00 10,2 9,6 11 6 19 11 NW 1012,1 47 0,0
10.08.2018 05:00:00 10,2 9,3 10 6 18 10 N 1012,0 50 0,0
10.08.2018 04:00:00 10,5 8,9 10 5 17 9 N 1012,6 50 0,0
10.08.2018 03:00:00 10,9 8,6 11 6 16 8 N 1013,4 50 0,0
10.08.2018 02:00:00 11,0 9,1 10 5 14 7 N 1013,6 50 0,0
10.08.2018 01:00:00 11,3 9,2 9 5 13 7 N 1013,7 50 0,0
10.08.2018 00:00:00 11,3 9,6 9 5 13 7 NNW 1013,9 50 0,0
09.08.2018 23:00:00 11,8 9,5 8 5 14 8 N 1013,7 50 0,0
09.08.2018 22:00:00 12,2 9,9 11 6 19 10 N 1013,4 50 0,0
09.08.2018 21:00:00 13,0 10,5 11 6 18 10 N 1013,0 50 0,0
09.08.2018 20:00:00 14,9 11,7 10 5 17 9 N 1012,1 50 0,0
09.08.2018 19:00:00 15,7 11,5 10 5 17 9 N 1011,6 50 0,0
09.08.2018 18:00:00 16,2 12,0 9 5 16 9 NNW 1010,9 50 0,0
09.08.2018 17:00:00 17,6 12,3 6 3 15 8 NNE 1010,3 49 0,0
09.08.2018 16:00:00 16,3 12,1 9 5 19 10 NNE 1010,7 47 0,0
09.08.2018 15:00:00 15,9 11,9 11 6 19 11 NNE 1010,8 48 0,0
09.08.2018 14:00:00 14,9 11,5 11 6 21 11 N 1010,8 50 0,0
09.08.2018 13:00:00 14,4 11,0 12 7 40 21 N 1010,8 50 0,0
09.08.2018 12:00:00 19,5 11,5 14 8 28 15 SSE 1008,4 42 0,0
09.08.2018 11:00:00 18,4 12,2 14 8 27 15 S 1008,4 37 0,0
09.08.2018 10:00:00 17,5 13,6 11 6 26 14 SW 1008,4 37 0,0
09.08.2018 09:00:00 16,1 12,8 15 8 28 15 SW 1008,4 42 0,0
09.08.2018 08:00:00 16,8 13,7 11 6 21 11 SW 1007,5 37 0,0
09.08.2018 07:00:00 15,0 13,4 11 6 24 13 SW 1007,6 34 0,0
09.08.2018 06:00:00 15,0 14,0 13 7 27 14 SSW 1006,9 22 0,0
09.08.2018 05:00:00 14,6 14,1 11 6 37 20 SSW 1006,4 17 0,0
09.08.2018 04:00:00 14,6 14,4 17 9 40 21 S 1005,9 10 0,0
09.08.2018 03:00:00 14,6 14,6 15 8 36 19 S 1006,2 0,8 0,0
09.08.2018 02:00:00 14,5 14,5 15 8 33 18 S 1006,0 0,5 0,0
09.08.2018 01:00:00 14,4 14,4 16 8 30 16 S 1006,3 4,2 0,0
09.08.2018 00:00:00 14,3 14,3 14 7 28 15 S 1006,3 3,1 0,0
08.08.2018 23:00:00 14,5 14,5 16 9 42 23 SSW 1006,6 13 0,0
08.08.2018 22:00:00 14,2 14,2 17 9 32 17 S 1006,7 0,5 0,0
08.08.2018 21:00:00 14,2 13,9 13 7 29 16 S 1006,7 12 0,0
08.08.2018 20:00:00 14,6 14,0 17 9 34 18 S 1006,5 21 0,7
08.08.2018 19:00:00 14,7 14,2 12 7 29 16 SSE 1007,0 20 0,8

tt = Température de l'air
td = dewpoint
ff = Vitesse du vent
fx = gusts
dd = Direction du vent
ppp = reduced air pressure
vv = visibility
rr = Quantités de précipitations

stations d'obs. à proximité